Flag for U.S.A. Weather past 2 weeks in Idaho Falls, Idaho, U.S.A.

Now
63 °F

Clear.


Feels Like: 63 °F
Forecast: 50 / 83 °F
Wind: 8 mph from Southwest

Location: Fanning Field

Current Time: Aug 28, 2014 at 11:37:15 PM

Latest Report: Aug 28, 2014 at 10:53 PM


Visibility: 10 mi

Pressure: 29.93 "Hg

Humidity: 54%

Dew point: 46 °F

Location of Idaho FallsLocation

Historic Weather in Idaho Falls — Graph

°F

Idaho Falls temperature yesterday

Maximum temperature yesterday: 80 °F (at 4:53 PM)
Minimum temperature yesterday: 44 °F (at 4:53 AM)
Average temperature yesterday: 63 °F

Past Weeks' High & Low Weather Summary

 TemperatureHumidityPressure
High90 °F (Aug 18, 4:53 PM)97% (Aug 20, 7:53 AM)30.21 "Hg (Aug 20, 7:53 AM)
Low42 °F (Aug 24, 6:53 AM)14% (Aug 18, 4:53 PM)29.71 "Hg (Aug 19, 5:53 PM)
Average63 °F65%29.99 "Hg
* Reported Aug 13 10:03 PM — Aug 28 9:53 PM, Idaho Falls, Weather by CustomWeather, © 2014

Note: Actual official high and low records may vary slightly from our data, if they occured in-between our weather recording intervals... More about our weather records

Advertising

Idaho Falls weather history for previous 24 hours

 ConditionsComfort  
Time TempWeatherWind HumidityBarometerVisibility
9:53 PM
Aug 28
73 °FSunny.12 mph36%29.94 "Hg10 mi
8:53 PM74 °FSunny.9 mph35%29.94 "Hg10 mi
7:53 PM78 °FSunny.14 mph28%29.94 "Hg10 mi
6:53 PM82 °FPassing clouds.13 mph23%29.96 "Hg10 mi
5:53 PM83 °FPassing clouds.14 mph22%29.95 "Hg10 mi
4:53 PM84 °FPassing clouds.14 mph26%29.96 "Hg10 mi
3:53 PM84 °FPassing clouds.9 mph26%29.98 "Hg10 mi
2:53 PM82 °FPassing clouds.10 mph29%30.01 "Hg10 mi
1:53 PM79 °FPassing clouds.8 mph35%30.04 "Hg10 mi
12:53 PM78 °FSunny.12 mph35%30.07 "Hg10 mi
11:53 AM75 °FSunny.9 mph40%30.09 "Hg10 mi
10:53 AM70 °FSunny.6 mph51%30.12 "Hg10 mi
9:53 AM65 °FSunny.3 mph61%30.13 "Hg10 mi
8:53 AM61 °FSunny.3 mph70%30.14 "Hg10 mi
7:53 AM52 °FClear.No wind89%30.14 "Hg10 mi
6:53 AM48 °FClear.3 mph93%30.13 "Hg10 mi
5:53 AM55 °FClear.3 mph77%30.09 "Hg10 mi
4:53 AM58 °FPassing clouds.No wind72%30.08 "Hg10 mi
3:53 AM55 °FPassing clouds.6 mph77%30.08 "Hg10 mi
2:53 AM56 °FClear.6 mph77%30.07 "Hg10 mi
1:53 AM57 °FClear.8 mph74%30.07 "Hg10 mi
12:53 AM58 °FClear.9 mph70%30.07 "Hg10 mi
11:53 PM
Aug 27
64 °FClear.9 mph56%30.07 "Hg10 mi
Weather by CustomWeather, © 2014

See weather overviewHow to use our weather pages